Regional Weather Roundup
Issued by NWS Cleveland, OH

Home | Current Version | Previous Version | Graphics & Text | Print | Product List | Glossary On
Versions: 1 2 3 4 5 6 7 8 9 10 11 12 13 14 15 16 17 18 19 20 21 22 23 24 25 26 27 28 29 30 31 32 33 34 35 36 37 38 39 40 41 42 43 44 45 46 47 48 49 50
000
ASUS41 KCLE 210910
RWRCLE
OHIO REGIONAL WEATHER ROUNDUP
NATIONAL WEATHER SERVICE WILMINGTON, OH
400 AM EST WED FEB 21 2018

NOTE: "FAIR" INDICATES FEW OR NO CLOUDS BELOW 12,000 FEET WITH NO
SIGNIFICANT WEATHER AND/OR OBSTRUCTIONS TO VISIBILITY.

OHZ001>008-015>018-024>027-034-035-043-044-211000-
   NORTHWEST OHIO

CITY           SKY/WX    TMP DP  RH WIND       PRES   REMARKS
DEFIANCE       LGT RAIN  48  45  89 NW10      30.10R
FINDLAY        LGT RAIN  59  53  80 NW17G33   30.07R
TOLEDO EXPRESS LGT RAIN  55  55 100 W6        30.07R
TOLEDO EXEC    LGT RAIN  56  55  97 W9        30.08R FOG
LIMA           LGT RAIN  59  56  89 NW26G43   30.09R
$$

OHZ009>014-019>023-028>033-038-089-211000-
   NORTHEAST OHIO

CITY           SKY/WX    TMP DP  RH WIND       PRES   REMARKS
CLE-HOPKINS    MOCLDY    68  54  60 S17G24    30.07F
CLE-LAKEFRONT  CLOUDY    69  53  56 S15G26    30.04F
CUY CO. ARPT   NOT AVBL
LORAIN-ELYRIA  CLOUDY    67  51  56 SW13G22   30.05F
ASHTABULA      CLOUDY    65  53  65 S14G23    30.08F
AKRON-CANTON   CLOUDY    68  52  56 SW18G31   30.11F
WOOSTER        FAIR      65  53  65 SW15G23   30.10S
MANSFIELD      FAIR      65  55  70 S18G26    30.08F
YOUNGSTOWN     CLOUDY    68  53  58 S10       30.11F
$$

OHZ042-051>053-060>062-070>072-077>081-211000-
  SOUTHWEST OHIO

CITY           SKY/WX    TMP DP  RH WIND       PRES   REMARKS
CINC-COVINGTON FAIR      66  60  81 S17       30.09F
CINC-LUNKEN    FAIR      68  59  73 S16G25    30.10F
HAMILTON       MOCLDY    69  59  70 S8G17     30.09F
DAYTON         FAIR      66  60  81 S20G30    30.07S
WRIGHT-PAT AFB FAIR      67  58  71 S18G26    30.08S
DAYTON GENERAL MOCLDY    67  57  70 S14G22    30.09S
WILMINGTON     FAIR      63  57  81 S13       30.12S
$$

OHZ036-037-039>041-045>050-054>059-063>069-073>076-082>088-211000-
  CENTRAL AND SOUTHEAST OHIO

CITY           SKY/WX    TMP DP  RH WIND       PRES   REMARKS
COLUMBUS       FAIR      66  55  67 S12       30.11F
OSU AIRPORT    FAIR      66  57  72 S15       30.10F
BOLTON FIELD   FAIR      65  56  72 S14       30.12F
RICKENBACK AFB FAIR      63  55  73 S9        30.12F
NEWARK         CLOUDY    67  53  61 S10       30.12S
MARION         FAIR      65  55  70 SW23G30   30.08S
LANCASTER      MOCLDY    67  53  61 S15       30.14S
ZANESVILLE     CLOUDY    68  51  54 S12       30.15F
NEW PHILLY     CLOUDY    69  51  52 S12G18    30.14F
$$




USA.gov is the U.S. government's official web portal to all federal, state and local government web resources and services.